sat.trackr.live / text

‹ back to catalog

STARLINK-31137

NORAD 58686 · 2023-211V

PAYLOAD ACTIVE UNKNOWN

§ Identity

Operator
Country
US
Launch date
2023-12-29
Launch site
AFETR
Launch vehicle
Mass (kg)
RCS (m²)

Purposes: comms

External: N2YO · Heavens-Above · Gunter

§ Orbital elements

Epoch: 2026-05-24T23:56:03.396192Z

Period
94.27 min
Inclination
43.0016°
Eccentricity
0.0001084
Mean motion
15.27590535 rev/d
Perigee alt
482.3 km
Apogee alt
483.8 km
Semi-major
6,861.2 km
B*
-3.7190e-7
RAAN
14.4385°
Arg perigee
274.0154°
Mean anomaly
86.0574°
Rev number
13,413

§ Raw data

STARLINK-311371 58686U 23211V   26144.99726153 -.00000272  00000+0 -37190-6 0  99992 58686  43.0016  14.4385 0001084 274.0154  86.0574 15.27590535134134

JSON: /api/v1/satellites/58686 · /tle

For live sub-satellite position, see the globe view (requires WebGL).

§ Visibility from observer

Set your observer location to see the next 7 days of passes ≥ 10°. The values pass through the URL so the page stays shareable.

No JS? Fill the form by hand. The geolocation button needs JavaScript.